TimeEDT,TemperatureF,Dew PointF,Humidity,Sea Level PressureIn,VisibilityMPH,Wind Direction,Wind SpeedMPH,Gust SpeedMPH,PrecipitationIn,Events,Conditions,WindDirDegrees,DateUTC
12:53 AM,41.0,34.0,76,29.65,10.0,Calm,Calm,-,N/A,,Mostly Cloudy,0,2014-03-12 04:53:00
1:53 AM,39.0,33.1,79,29.63,10.0,Calm,Calm,-,N/A,,Clear,0,2014-03-12 05:53:00
2:53 AM,37.0,32.0,82,29.60,10.0,WNW,3.5,-,N/A,,Partly Cloudy,290,2014-03-12 06:53:00
3:53 AM,36.0,32.0,86,29.56,9.0,Calm,Calm,-,N/A,,Mostly Cloudy,0,2014-03-12 07:53:00
4:53 AM,37.9,33.1,83,29.54,10.0,NW,3.5,-,N/A,,Clear,310,2014-03-12 08:53:00
5:53 AM,37.0,33.1,86,29.52,8.0,Calm,Calm,-,N/A,,Partly Cloudy,0,2014-03-12 09:53:00
6:53 AM,37.0,33.1,86,29.50,8.0,Calm,Calm,-,N/A,,Partly Cloudy,0,2014-03-12 10:53:00
7:53 AM,37.0,33.1,86,29.45,7.0,Calm,Calm,-,0.00,,Scattered Clouds,0,2014-03-12 11:53:00
8:53 AM,41.0,36.0,82,29.43,7.0,Calm,Calm,-,N/A,,Overcast,0,2014-03-12 12:53:00
9:53 AM,43.0,37.0,80,29.38,6.0,Calm,Calm,-,N/A,,Haze,0,2014-03-12 13:53:00
10:53 AM,48.0,37.9,68,29.34,10.0,North,4.6,-,N/A,,Overcast,350,2014-03-12 14:53:00
11:53 AM,46.9,36.0,66,29.31,9.0,NW,12.7,-,0.00,Rain,Light Rain,320,2014-03-12 15:53:00
12:53 PM,45.0,39.0,80,29.26,5.0,ENE,4.6,-,0.03,Rain,Light Rain,70,2014-03-12 16:53:00
1:09 PM,44.1,39.9,85,29.25,2.0,Calm,Calm,-,0.04,Rain,Rain,0,2014-03-12 17:09:00
1:34 PM,44.1,42.1,93,29.21,4.0,Calm,Calm,-,0.08,Rain,Light Rain,0,2014-03-12 17:34:00
1:53 PM,45.0,41.0,86,29.19,5.0,WNW,4.6,-,0.08,Rain,Light Rain,300,2014-03-12 17:53:00
2:53 PM,48.0,43.0,83,29.11,8.0,East,4.6,-,0.02,,Mostly Cloudy,100,2014-03-12 18:53:00
3:53 PM,50.0,43.0,77,29.04,8.0,Calm,Calm,-,N/A,,Mostly Cloudy,0,2014-03-12 19:53:00
4:27 PM,46.0,42.1,86,29.11,1.8,WNW,12.7,39.1,0.03,Rain,Heavy Rain,290,2014-03-12 20:27:00
4:34 PM,46.0,43.0,89,29.07,2.0,South,3.5,25.3,0.05,Rain,Rain,170,2014-03-12 20:34:00
4:42 PM,46.9,43.0,86,29.07,1.8,South,6.9,-,0.07,Rain,Rain,180,2014-03-12 20:42:00
4:48 PM,46.4,42.8,87,29.08,3.0,WNW,3.5,-,0.07,Rain,Light Rain,290,2014-03-12 20:48:00
4:49 PM,46.9,43.0,86,29.08,3.0,WNW,4.6,-,0.07,Rain,Light Rain,300,2014-03-12 20:49:00
5:18 PM,45.0,43.0,93,29.05,2.5,North,8.1,-,0.01,Rain,Light Rain,350,2014-03-12 21:18:00
5:53 PM,45.0,43.0,93,29.07,1.8,NNW,3.5,-,0.03,Rain,Light Rain,340,2014-03-12 21:53:00
6:00 PM,45.0,43.0,93,29.06,2.5,NNW,3.5,-,0.00,Rain,Light Rain,340,2014-03-12 22:00:00
6:07 PM,45.0,43.0,93,29.06,3.0,NNW,6.9,-,0.00,,Overcast,340,2014-03-12 22:07:00
6:31 PM,45.0,42.1,90,29.08,5.0,North,10.4,-,0.00,,Overcast,350,2014-03-12 22:31:00
6:37 PM,45.0,42.1,90,29.10,5.0,North,16.1,20.7,0.00,,Overcast,350,2014-03-12 22:37:00
6:51 PM,42.8,39.2,87,29.11,10.0,North,23.0,29.9,0.00,Rain,Light Rain,350,2014-03-12 22:51:00
6:53 PM,41.0,37.9,89,29.13,10.0,North,21.9,29.9,0.00,,Overcast,350,2014-03-12 22:53:00
7:32 PM,33.1,28.0,82,29.22,10.0,NNW,24.2,35.7,0.00,Rain,Light Rain,340,2014-03-12 23:32:00
7:53 PM,30.9,25.0,79,29.28,10.0,NNW,24.2,38.0,0.00,,Overcast,330,2014-03-12 23:53:00
8:43 PM,28.0,19.0,69,29.37,10.0,NNW,16.1,29.9,0.00,,Overcast,340,2014-03-13 00:43:00
8:53 PM,28.0,19.0,69,29.39,10.0,North,15.0,26.5,0.00,,Overcast,350,2014-03-13 00:53:00
9:53 PM,26.1,14.0,60,29.46,10.0,NNW,21.9,36.8,N/A,,Overcast,330,2014-03-13 01:53:00
10:53 PM,23.0,10.0,58,29.53,10.0,North,25.3,39.1,N/A,,Overcast,350,2014-03-13 02:53:00
11:53 PM,21.9,9.0,58,29.55,10.0,NNW,21.9,29.9,N/A,,Overcast,330,2014-03-13 03:53:00